TeikyoSat 4
1 49396U 21102B   25303.08749874  .00002889  00000-0  18964-3 0  9995
2 49396  97.3964 336.3205 0012613  13.2295 346.9263 15.08343698218021
Z-Sat
1 49399U 21102E   25303.81160289  .00006764  00000-0  35602-3 0  9990
2 49399  97.3650 341.0491 0016586 332.0811  27.9531 15.15830383218669
KOSEN 1
1 49402U 21102H   25302.55391918  .00010121  00000-0  43766-3 0  9992
2 49402  97.3542 344.3800 0013523 305.1567  54.8402 15.22564927218876
HO-113
1 50466U 21131B   25303.87933058  .00000855  00000-0  27946-3 0  9994
2 50466  98.5072  32.5165 0005144  73.7854 286.3900 14.41021651202089
SNUGLITE 2
1 52899U 22065F   25303.80464301  .00001856  00000-0  36605-3 0  9990
2 52899  98.1896  84.5945 0007991  31.8981 328.2704 14.63651372177433
UmKA 1 (RS40S)
1 57172U 23091G   25303.82221389  .00010685  00000-0  53790-3 0  9992
2 57172  97.5410 358.4844 0013461 192.0884 168.0028 15.17307201129186
CubeBel-2 (EU11S)
1 57175U 23091K   25303.82468162  .00017505  00000-0  75592-3 0  9999
2 57175  97.5407   0.6129 0010979 194.9866 165.1047 15.22513875129326
ENSO
1 58470U 23185J   25303.92361103  .00903765  39180-3  18243-2 0  9995
2 58470  97.3470  26.1128 0007672 265.5287  94.5114 15.99652834107490
SONATE-2
1 59112U 24043Q   25303.80042602  .00035576  00000-0  83226-3 0  9996
2 59112  97.5308  78.5599 0009159 323.4625  36.5996 15.42019279 92351
MO-122
1 60209U 24125G   25303.83286174  .00043989  00000-0  99909-3 0  9995
2 60209  97.2589 154.2722 0015849 347.6155  12.4701 15.42768840 73987
GRBBeta
1 60237U 24128C   25303.28309994  .00006338  00000-0  45382-3 0  9997
2 60237  61.9907 301.5071 0057067  87.3527 273.4095 15.04116019 71653
Curium One
1 60242U 24128H   25303.30649810  .00012326  00000-0  78642-3 0  9999
2 60242  61.9803 297.2699 0056910  83.8742 276.8831 15.07718417 71734
ROBUSTA-3A
1 60243U 24128J   25303.29226014  .00012050  00000-0  78195-3 0  9992
2 60243  61.9877 298.6720 0056839  81.3832 279.3695 15.07120150 71714
CatSat
1 60246U 24125J   25303.09624655  .00038679  00000-0  10608-2 0  9992
2 60246  97.2402 151.0599 0035543 306.9270  52.8720 15.36525253 71819
HYPERVIEW-1G (RS66S)
1 61772U 24199AP  25303.81823557  .00053892  00000-0  11967-2 0  9993
2 61772  97.3269 172.8460 0013222  44.2395 315.9907 15.43436515 98981
AO-123
1 61781U 24199AY  25303.87183939  .00014878  00000-0  50067-3 0  9998
2 61781  97.3301 169.8176 0016702  52.9852 307.2914 15.30748215 98787
ZIMSAT 2
1 61783U 24199BA  25303.81769124  .00146796  00000-0  19362-2 0  9997
2 61783  97.3195 175.1774 0011157  41.6008 318.6094 15.57834211102299
HADES-R (SO-124)
1 62690U 25009CK  25303.17057857  .00128451  00000-0  26387-2 0  9991
2 62690  97.3955  24.5766 0002744 279.8684  80.2255 15.45515546 44027
HYDRA-T
1 62692U 25009CM  25302.46989686  .00107535  00000-0  21725-2 0  9999
2 62692  97.3958  23.9898 0003017 278.5267  81.5640 15.46087161 43926
JINJUSat 1B
1 63210U 25052A   25303.17077107  .00022747  00000-0  92040-3 0  9999
2 63210  97.4212 195.6590 0004236 145.8260 214.3251 15.24704524 34947
NUSHSAT 1
1 63211U 25052B   25303.25726174  .00026688  00000-0  10549-2 0  9995
2 63211  97.4198 195.8158 0003981 147.6441 212.5042 15.25456386 34961
TEVEL2-4
1 63213U 25052D   25303.24109368  .00024578  00000-0  98758-3 0  9991
2 63213  97.4118 195.4378 0002637 153.0798 207.0577 15.24926950 34957
TEVEL2-5
1 63214U 25052E   25303.24475579  .00024918  00000-0  10027-2 0  9992
2 63214  97.4115 195.4335 0002656 153.6705 206.4668 15.24874852 34950
TEVEL2-6
1 63215U 25052F   25303.25070809  .00024606  00000-0  99158-3 0  9998
2 63215  97.4119 195.4297 0002633 155.3268 204.8097 15.24828517 34955
TEVEL2-1
1 63217U 25052H   25303.21905872  .00023475  00000-0  95452-3 0  9999
2 63217  97.4093 195.2447 0002043 170.6180 189.5096 15.24538856 34942
TEVEL2-3
1 63218U 25052J   25303.15313716  .00023452  00000-0  95324-3 0  9996
2 63218  97.4094 195.1827 0002092 170.8459 189.2817 15.24550687 34933
TEVEL2-2
1 63219U 25052K   25302.95729534  .00022540  00000-0  91712-3 0  9997
2 63219  97.4091 194.9857 0002009 171.9625 188.1646 15.24524233 34909
TEVEL2-9
1 63237U 25052AD  25303.20742533  .00022537  00000-0  95471-3 0  9992
2 63237  97.4153 194.9978 0005268 225.4470 134.6337 15.23153082 34918
TEVEL2-7
1 63238U 25052AE  25303.80879308  .00023719  00000-0  10071-2 0  9995
2 63238  97.4157 195.5738 0005394 222.7219 137.3599 15.23062211 35009
TEVEL2-8
1 63239U 25052AF  25303.22235866  .00022134  00000-0  94179-3 0  9999
2 63239  97.4156 194.9812 0005294 225.9695 134.1106 15.23006263 34910
HYDRA-W
1 63490U 25052BL  25303.23190311  .00075749  00000-0  22609-2 0  9992
2 63490  97.4087 196.6257 0006173 208.7282 151.3622 15.34320626 35034
HADES-ICM (SO-125)
1 63492U 25052BN  25303.18245186  .00070936  00000-0  22033-2 0  9993
2 63492  97.4102 196.4055 0006443 217.3266 142.7530 15.33074060 35013
Dragonfly
1 65729U 98067XH  25303.31557015  .00111484  00000-0  13829-2 0  9993
2 65729  51.6315 355.8222 0003222  56.6849 303.4452 15.59168252  6366
RSP-03
1 65732U 98067XL  25303.26250097  .00095490  00000-0  12312-2 0  9995
2 65732  51.6325 356.2185 0005535  33.3341 326.7999 15.58206282  6361
GHS-01
1 65733U 98067XM  25303.30826846  .00125230  00000-0  15127-2 0  9995
2 65733  51.6326 355.7752 0003637  53.0347 307.0978 15.59809087  6376
BOTAN
1 65942U 98067XP  25303.23003163  .00087247  00000-0  13309-2 0  9993
2 65942  51.6334 357.4989 0004563 354.4119   5.6819 15.53700317  3082
